www.pogodaiklimat.ru

Погода и климат >> Архив погоды >> Ирак >> Ramadi


ПОГОДА в Ramadi

  • Прогноз погоды в Ramadi
  • Монитор погоды в Ramadi
  • Климат города

АРХИВ ПОГОДЫ в Ramadi

Время (UTC), дата Ветер
(напр.,м/с)
 
Видим.   Явления Облачность Т
(С)
Тd
(С)
f
(%)
Тe
(С)
Тes
(С)
Комфортность P
(гПа)
Po
(гПа)
Тmin
(С)
Tmax
(С)
R
(мм)
R24
(мм)
S
(см)
06 9.12 штиль 0 10 км 4/4 900 м
[Sc]
+14.0 +11.1 83 +14 +15 1020.9 1021.0 +12.0
09 9.12 СЗ 2 10 км 1/1 900 м
[Cu med, cong]
+17.7 +12.5 72 +18 +24 1020.8 1021.0
12 9.12 СЗ 3 10 км 4/4 900 м
[Cu med, cong]
+19.3 +12.9 66 +21 +22 комфорт 1020.0 1020.0
15 9.12 штиль 0 10 км ясно +16.8 +14.5 86 +17 +17 1020.3 1020.0
03 10.12 СЗ 1 8000 м дымка 5/0
[Ac trans]
+11.2 +10.2 94 +11 +11 1020.4 1020.0
06 10.12 СЗ 2 200 м туман ?/? +11.2 +10.8 97 +10 +10 1021.2 1021.0
09 10.12 штиль 0 8000 м дымка {туман} 4/4 900 м
[Cu med, cong]
+16.8 +13.4 80 +17 +22 1021.3 1021.0
12 10.12 С 1 10 км 4/4 900 м
[Cu med, cong]
+18.5 +13.4 72 +20 +22 1019.8 1020.0
15 10.12 СЗ 2 8000 м дымка ясно +15.9 +14.5 91 +16 +16 1020.0 1020.0
18 10.12 штиль 0 8000 м дымка ясно +12.8 +12.2 96 +12 +12 1021.5 1022.0 +19.8
03 11.12 СЗ 1 8000 м дымка ясно +8.8 +8.4 97 +8 +8 1022.1 1022.0
06 11.12 Ю 1 10 км ясно +10.5 +7.8 83 +10 +13 1023.1 1023.0 +8.6
09 11.12 ЮЗ 3 10 км ясно +18.4 +12.7 69 +19 +24 1022.2 1022.0
12 11.12 Ю 2 10 км ясно +20.9 +13.0 61 +24 +27 комфорт 1020.9 1021.0
15 11.12 штиль 0 10 км ясно +17.0 +13.6 80 +17 +17 1021.2 1021.0
18 11.12 ЮВ 2 10 км ясно +14.7 +12.5 87 +14 +14 1022.0 1022.0 +21.5
03 12.12 ЮВ 2 8000 м дымка ясно +10.9 +10.1 95 +9 +9 1020.9 1021.0
06 12.12 ЮВ 1 10 км ясно +13.2 +9.4 78 +13 +16 1022.4 1022.0 +10.7
09 12.12 ЮВ 2 10 км ясно +19.2 +12.8 66 +21 +28 комфорт 1020.5 1021.0
12 12.12 Ю 1 10 км ясно +22.0 +15.3 66 +26 +29 душно 1018.9 1019.0
15 12.12 ЮВ 1 10 км ясно +18.2 +16.2 88 +20 +20 1018.9 1019.0
18 12.12 ЮВ 3 8000 м дымка ясно +15.4 +13.8 90 +15 +15 1019.0 1019.0 +22.4
03 13.12 штиль 0 8000 м дымка ясно +9.9 +9.5 97 +9 +9 1020.3 1020.0
06 13.12 штиль 0 10 км 3/0
[Ci fib]
+12.5 +7.3 71 +12 +15 1022.4 1022.0 +9.7
09 13.12 З 2 10 км 4/0
[Ac und]
+18.8 +10.2 57 +20 +25 1022.1 1022.0
12 13.12 З 1 10 км 5/0
[Ac und]
+20.2 +13.2 64 +23 +25 комфорт 1021.2 1021.0
18 13.12 С 2 8000 м дымка ясно +13.4 +11.9 91 +13 +13 1025.0 1025.0 +21.0
03 14.12 З 2 200 м туман ?/? +10.4 +10.2 99 +9 +9 1026.6 1027.0
06 14.12 З 1 8000 м в посл. час туман ясно +11.0 +10.0 94 +11 +13 1028.1 1028.0 +9.8
09 14.12 З 2 10 км ясно +17.0 +10.6 66 +17 +24 1027.7 1028.0
12 14.12 СЗ 3 10 км ясно +19.0 +11.7 63 +20 +22 1026.8 1027.0
15 14.12 СЗ 1 10 км 1/0
[Ci fib]
+15.6 +12.5 82 +16 +16 1027.4 1027.0
18 14.12 С 1 10 км ясно +12.7 +12.1 96 +13 +13 1028.2 1028.0 +19.4
03 15.12 СЗ 2 8000 м дымка ясно +8.2 +7.1 93 +6 +6 1028.2 1028.0
06 15.12 З 2 10 км ясно +9.8 +5.8 76 +8 +10 1029.4 1029.0 +7.6
12 15.12 С 2 10 км ясно +17.5 +9.7 60 +18 +20 1026.8 1027.0
15 15.12 С 2 10 км ясно +14.8 +13.0 89 +14 +14 1027.2 1027.0
18 15.12 СЗ 2 10 км ясно +12.2 +9.3 82 +11 +11 1027.6 1028.0 +18.0

 

Местоположение метеостанции Ramadi (Ирак): широта 33.45 долгота 43.32 высота над уровнем моря 48 м.

В архиве по умолчанию представлена погода в Ramadi за последнюю неделю. Архивные данные за месяц целиком и за предыдущие месяцы, начиная с января 2011 года, Вы можете получить, выбрав интересующий диапазон дат из раскрывающегося списка и нажав кнопку "Ввод!".


*Определитесь, кто Вы:
робот инопланетянин человек

Внимание! Время в таблицах - всемирное. Для получения местного времени необходимо прибавить поправку, которая в Ramadi равна 3 ч.

Смотрите также архив погоды в соседних городах и на ближайших метеорологических станциях:

Погода в Heet (Ирак) (45 км)
Погода в Baghdad (Ирак) (88 км)
Погода в Haditha (Ирак) (112 км)
Погода в Karbalaa (Ирак) (113 км)
Погода в Al-Khalis (Ирак) (120 км)
Погода в Tikrit (Ирак) (129 км)
Погода в Ayn Al-Tamar (Ирак) (130 км)
Погода в Hella (Ирак) (153 км)
Погода в Baiji (Ирак) (165 км)
Погода в Ana (Ирак) (170 км)

Пояснения к столбцам:

Ветер - указаны скорость ветра в м/с - средняя за 10 мин, порывы в срок и между сроками (в фигурных скобках) и направление, откуда дует ветер: С - северный, СВ - северо-восточный, В - восточный, ЮВ - юго-восточный, Ю - южный, ЮЗ - юго-западный, З - западный, СЗ - северо-западный.
Видимость - горизонтальная дальность видимости в метрах или километрах. При видимости от 1 до 10 км при отсутствии осадков обычно наблюдается дымка, при ухудшении видимости до 1 км и менее - туман. В сухую погоду видимость может ухудшаться дымом, пылью или мглою.
Явления - указаны атмосферные явления, наблюдавшиеся в срок или в последний час перед сроком; фигурными скобками обозначены явления, наблюдавшиеся между сроками (за 1-3 часа до срока); квадратными скобками обозначены град или гололедные отложения с указанием их диаметра в мм.
Облачность - указаны через наклонную черту общая и нижняя облачность в баллах и высота нижней границы облаков в метрах; квадратными скобками обозначены формы облаков: Ci - перистые, Cs - перисто-слоистые, Cc - перисто-кучевые, Ac - высококучевые, As - высокослоистые, Sc - слоисто-кучевые, Ns - слоисто-дождевые, Cu - кучевые, Cb - кучево-дождевые. Подробнее классификацию облаков см. в Атласе облаков (PDF).
T - Температура воздуха - температура, измеренная на высоте 2 м над землей.
Td - Температура точки росы - температура, при понижении до которой содержащийся в воздухе водяной пар достигнет насыщения.
f - Относительная влажность воздуха - влажноcть воздуха, измеренная на высоте 2 м над землей.
Te - Эффективная температура - температура, которую ощущает одетый по сезону человек в тени. Характеристика душности погоды. При расчете учитывается влияние влажности воздуха и скорости ветра на теплоощущения человека.
Tes - Эффективная температура на солнце - температура, которую ощущает человек, с поправкой на солнечный нагрев. Характеристика знойности погоды. Зависит от высоты солнца над горизонтом, облачности и скорости ветра. Ночью, в пасмурную погоду, а также при ветре 12 м/с и более поправка равна нулю.
P - Атмосферное давление - приведенное к уровню моря атмосферное давление.
Po - Атмосферное давление - измеренное на уровне метеостанции атмосферное давление.
Tmin - Минимальная температура - минимум температуры воздуха на высоте 2 м над землей.
Tmax - Максимальная температура - максимум температуры воздуха на высоте 2 м над землей.
R - Количество осадков - Количество выпавших осадков за период времени, мм. При наведении курсора мыши на число - период времени, за который выпало указанное количество осадков.
R24 - Количество осадков - Количество выпавших осадков за 24 часа, мм.
S - Снежный покров - Высота снежного покрова, см. При наведении курсора мыши на число - состояние снежного покрова и степень покрытия местности в баллах.